This is the latest recevied weather packets stored in our database for station/object WB3IGR. If no packets are shown the sender has not sent any weather packets the latest 10 day(s).
| Time | Temp. | Humidity | Pressure | Rain* | Wind** | Luminosity | Snow |
|---|---|---|---|---|---|---|---|
| 1777552254 | 9.44° C | 99% | 1009.9 hPa | 0 mm | - | 98 W/m² | - |
| 1777551951 | 9.44° C | 99% | 1009.8 hPa | 0 mm | - | 50 W/m² | - |
| 1777551649 | 9.44° C | 99% | 1009.9 hPa | 0 mm | - | 39 W/m² | - |
| 1777551346 | 9.44° C | 99% | 1009.9 hPa | 0 mm | - | 36 W/m² | - |
| 1777551042 | 9.44° C | 99% | 1009.9 hPa | 0 mm | - | 30 W/m² | - |
| 1777550739 | 9.44° C | 99% | 1009.9 hPa | 0 mm | - | 46 W/m² | - |
| 1777550436 | 9.44° C | 99% | 1009.7 hPa | 0 mm | - | 36 W/m² | - |
| 1777550132 | 8.89° C | 99% | 1009.7 hPa | 0 mm | - | 23 W/m² | - |
| 1777549828 | 8.89° C | 99% | 1009.6 hPa | 0 mm | - | 32 W/m² | - |
| 1777549525 | 8.89° C | 99% | 1009.6 hPa | 0 mm | - | 32 W/m² | - |
| 1777549221 | 8.89° C | 99% | 1009.6 hPa | 0 mm | - | 32 W/m² | - |
| 1777548917 | 8.89° C | 99% | 1009.6 hPa | 0 mm | - | 15 W/m² | - |
| 1777548615 | 8.89° C | 99% | 1009.7 hPa | 0 mm | - | 12 W/m² | - |
| 1777548311 | 8.89° C | 99% | 1009.6 hPa | 0 mm | - | 14 W/m² | - |
| 1777548009 | 8.89° C | 99% | 1009.6 hPa | 0 mm | - | 9 W/m² | - |
| 1777547704 | 8.89° C | 99% | 1009.6 hPa | 0 mm | - | 9 W/m² | - |
| 1777547400 | 8.89° C | 99% | 1009.7 hPa | 0 mm | - | 7 W/m² | - |
| 1777547098 | 8.89° C | 99% | 1009.6 hPa | 0 mm | - | 8 W/m² | - |
| 1777546795 | 8.89° C | 99% | 1009.7 hPa | 0 mm | - | 8 W/m² | - |
| 1777546492 | 8.89° C | 99% | 1009.7 hPa | 1.27 mm | - | 7 W/m² | - |
| 1777546189 | 8.89° C | 99% | 1009.7 hPa | 1.27 mm | - | 5 W/m² | - |
| 1777545885 | 8.89° C | 99% | 1009.6 hPa | 0 mm | - | 3 W/m² | - |
| 1777545582 | 8.89° C | 99% | 1009.4 hPa | 0 mm | - | 3 W/m² | - |
| 1777545279 | 8.33° C | 99% | 1009.7 hPa | 0 mm | - | 3 W/m² | - |
| 1777544976 | 8.33° C | 99% | 1009.5 hPa | 0 mm | - | 1 W/m² | - |
* Rain latest hour (hover to see other rain measurements)
** Current wind speed in m/s (hover to see current wind gust speed)